#timestamp,LO_Frequency,Hit 
1500516015.0,286047004.4,N
1500516015.9,286047004.4,N
1500516035.8,286047003.8,N
1500516055.6,286047004.0,N
1500516075.4,286047004.3,N
1500516095.3,286047002.0,N
1500516115.1,286047002.2,N
1500516135.9,286047001.8,N
1500516155.7,286047004.2,N
1500516175.5,286047003.7,N
1500516195.4,286047001.8,N
1500516215.2,286047004.4,N
1500516235.1,286047004.1,N
1500516236.0,286047004.1,N
1500516255.8,286047004.1,N
1500516275.7,286047003.7,N
1500516295.5,286047003.3,N
1500516315.4,286047004.9,N
1500516335.2,286047005.3,N
1500516355.0,286047003.4,N
1500516355.9,286047003.4,N
1500516375.8,286047003.7,N
1500516395.6,286047003.5,N
1500516415.4,286047006.0,N
1500516435.3,286047004.6,N
1500516455.1,286047002.9,N
1500516475.9,286047004.2,N
1500516495.7,286047003.0,N
1500516515.5,286047003.2,N
1500516535.4,286047004.2,N
1500516555.2,286047003.8,N
1500516575.1,286047003.4,N
1500516576.0,286047003.4,N
1500516595.8,286047005.7,N
1500516615.6,286047005.2,N
1500516635.5,286047005.9,N
1500516655.3,286047006.0,N
1500516675.1,286047005.9,N
1500516695.9,286047003.0,N
1500516715.7,286047003.0,N
1500516735.6,286047005.9,N
1500516755.4,286047005.3,N
1500516775.2,286047006.0,N
1500516795.1,286047005.1,N
1500516796.0,286047005.1,N
1500516815.8,286047006.0,N
1500516835.6,286047003.5,N
1500516855.5,286047003.9,N
1500516875.3,286047001.3,N
1500516895.2,286047001.6,N
1500516915.9,286047002.2,N
1500516935.7,286047002.6,N
1500516955.6,286047002.3,N
1500516975.4,286047002.6,N
1500516995.2,286047001.5,N
1500517015.1,286047002.1,N
1500517016.0,286047002.1,N
1500517035.8,286047002.5,N
1500517055.7,286047002.3,N
1500517075.5,286046999.9,N
1500517095.3,286047001.0,N
1500517115.2,286047000.9,N
1500517135.0,286047001.0,N
1500517135.9,286047001.0,N
1500517155.8,286046998.6,N
1500517175.6,286046998.2,N
1500517195.4,286046998.1,N
1500517215.3,286046998.5,N
1500517235.1,286046998.9,N
1500517255.8,286046998.1,N
1500517275.7,286046998.7,N
1500517295.5,286046999.4,N
1500517315.4,286046999.3,N
1500517335.2,286046998.4,N
1500517355.0,286046998.9,N
1500517355.9,286046998.9,N
1500517375.8,286046999.3,N
1500517395.6,286046999.5,N
1500517415.5,286046999.1,N
1500517435.3,286046999.6,N
1500517455.1,286046998.9,N
1500517475.9,286046996.5,N
1500517495.7,286046997.7,N
1500517515.5,286046997.9,N
1500517535.4,286046997.7,N
1500517555.2,286046996.5,N
1500517575.1,286046996.9,N
1500517576.0,286046996.9,N
1500517595.8,286046999.6,N
1500517615.7,286046998.4,N
1500517635.5,286046999.3,N
1500517655.3,286046997.3,N
1500517675.2,286046997.4,N
1500517695.9,286046997.3,N
1500517715.7,286046997.0,N
1500517735.6,286046996.7,N
1500517755.4,286046999.5,N
1500517775.3,286046996.5,N
1500517795.1,286046998.2,N
1500517796.0,286046998.2,N
1500517815.8,286047000.7,N
1500517835.7,286047000.8,N
1500517855.5,286047000.5,N
1500517875.3,286047000.3,N
1500517895.2,286047000.0,N
1500517915.0,286047000.1,N
1500517915.9,286047000.1,N
1500517935.8,286047000.2,N
1500517955.6,286047000.4,N
1500517975.4,286047000.4,N
1500517995.3,286047000.1,N
1500518015.1,286046999.7,N
1500518035.8,286046998.3,N
1500518055.7,286046998.1,N
1500518075.5,286047000.7,N
1500518095.4,286046999.9,N
1500518115.2,286046999.1,N
1500518135.0,286046999.1,N
1500518135.9,286046999.1,N
1500518155.8,286046998.3,N
1500518175.6,286046997.1,N
1500518195.5,286046998.9,N
1500518215.3,286047000.7,N
1500518235.1,286046996.9,N
1500518255.9,286046999.2,N
1500518275.7,286046998.3,N
1500518295.5,286046999.5,N
1500518315.4,286046999.2,N
1500518335.2,286046999.0,N
1500518355.1,286047001.2,N
1500518356.0,286047001.2,N
1500518375.8,286047000.1,N
1500518395.6,286047002.5,N
1500518415.5,286046999.9,N
1500518435.3,286047002.6,N
1500518455.1,286046998.6,N
1500518475.9,286046999.5,N
1500518495.7,286046998.6,N
1500518515.6,286047001.2,N
1500518535.4,286047002.4,N
1500518555.2,286047002.8,N
1500518575.1,286047000.6,N
1500518576.0,286047000.6,N
1500518595.8,286047001.2,N
1500518615.7,286046998.1,N
1500518635.5,286047001.2,N
1500518655.3,286047002.7,N
1500518675.2,286047002.3,N
1500518695.0,286047001.7,N
1500518695.9,286047001.7,N
1500518715.8,286047001.1,N
1500518735.6,286047000.8,N
1500518755.4,286047000.8,N
1500518775.3,286047001.9,N
1500518795.1,286047003.5,N
1500518815.8,286047004.4,N
1500518835.7,286047000.7,N
1500518855.5,286047000.7,N
1500518875.4,286047000.9,N
1500518895.2,286046998.5,N
1500518915.0,286046998.6,N
1500518915.9,286046998.6,N
1500518935.8,286047002.7,N
1500518955.6,286046998.1,N
1500518975.5,286047000.6,N
1500518995.3,286047000.7,N
1500519015.1,286047000.5,N
1500519035.9,286047000.7,N
1500519055.7,286047002.3,N
1500519075.6,286047004.1,N
1500519095.4,286047001.7,N
1500519115.2,286047002.5,N
1500519135.1,286047001.6,N
1500519136.0,286047001.6,N
1500519155.8,286047001.6,N
1500519175.6,286047001.9,N
1500519195.5,286047003.6,N
1500519215.3,286047004.2,N
1500519235.2,286047004.4,N
1500519255.9,286047001.8,N
1500519275.7,286047003.2,N
1500519295.6,286047002.9,N
1500519315.4,286047001.7,N
1500519335.2,286047002.0,N
1500519355.1,286047001.3,N
1500519356.0,286047001.3,N
1500519375.8,286047002.4,N
1500519395.7,286047001.5,N
1500519415.5,286047004.2,N
1500519435.3,286047003.7,N
1500519455.2,286046999.8,N
1500519475.0,286047002.3,N
1500519475.9,286047002.3,N
1500519495.8,286047002.7,N
1500519515.6,286047001.4,N
1500519535.4,286047002.3,N
1500519555.3,286047002.5,N
1500519575.1,286047004.4,N
1500519595.8,286047001.6,N
